Starlink 32012

operational
NORAD ID: 60027 Int'l Des: 2024-111 Owner: SPXS Country: US Constellation: starlink
LEOCIRCULAR

关于 Starlink 32012

正在加载描述...

实时位置

正在加载3D地球...

即将过境

高度历史

Altitude vs Time

uPlot chart will show altitude changes over time

两行轨道根数

1 60027U 24111M 25352.55604387 .00001801 00000-0 72932-4 0 9996
2 60027 53.1605 92.3334 0001119 84.9507 275.1622 15.30186423 86615
Epoch: Dec 18, 2025 • Age: 12 hours

当前状态

高度 475.3 km
速度 7.63 km/s
星下点 17.25°N, 153.71°E
发射日期 Jun 8, 2024
运行时间 1.5 years
类型 internet

技术详情

分类 Payload
质量 730.00 kg
干质量 700.00 kg
总质量 730.00 kg
长度 0.30 m
直径 4.10 m
跨度 29.00 m
形状 Box + pan
制造商 SPXS
平台类型 Starlink V2M
阶段状态 In Orbit
所有者/国家 SPXS/US

大型星座

Loading constellations...